Time,TemperatureF,DewpointF,PressureIn,WindDirection,WindDirectionDegrees,WindSpeedMPH,WindSpeedGustMPH,Humidity,HourlyPrecipIn,Conditions,Clouds,dailyrainin,SoftwareType,DateUTC
2013-06-08 00:01:00,67.0,65.0,29.86,SW,225,0.0,-999.0,94,-99.99,,,-99.99,,2013-06-08 04:01:00,
2013-06-08 00:03:00,67.0,65.0,29.86,SW,225,0.0,-999.0,94,-99.99,,,-99.99,,2013-06-08 04:03:00,
2013-06-08 00:13:00,67.0,65.0,29.86,SW,225,0.0,-999.0,94,-99.99,,,-99.99,,2013-06-08 04:13:00,
2013-06-08 00:23:00,67.0,65.0,29.86,SW,225,0.0,-999.0,94,-99.99,,,-99.99,,2013-06-08 04:23:00,
2013-06-08 00:33:00,67.0,66.0,29.85,SW,225,0.0,-999.0,95,-99.99,,,-99.99,,2013-06-08 04:33:00,
2013-06-08 00:42:00,67.0,66.0,29.85,SW,225,0.0,-999.0,95,-99.99,,,-99.99,,2013-06-08 04:42:00,
2013-06-08 00:53:00,67.0,66.0,29.85,SW,225,0.0,-999.0,95,-99.99,,,-99.99,,2013-06-08 04:53:00,
2013-06-08 01:02:00,67.0,66.0,29.86,SW,225,0.0,-999.0,95,-99.99,,,-99.99,,2013-06-08 05:02:00,
2013-06-08 01:12:00,67.0,66.0,29.86,SW,225,0.0,-999.0,95,-99.99,,,-99.99,,2013-06-08 05:12:00,
2013-06-08 01:22:00,66.0,65.0,29.86,SW,225,0.0,-999.0,95,-99.99,,,-99.99,,2013-06-08 05:22:00,
2013-06-08 01:32:00,66.0,65.0,29.86,SW,225,0.0,-999.0,95,-99.99,,,-99.99,,2013-06-08 05:32:00,
2013-06-08 01:42:00,66.0,65.0,29.86,SW,225,0.0,-999.0,95,-99.99,,,-99.99,,2013-06-08 05:42:00,
2013-06-08 01:53:00,66.0,65.0,29.87,SW,225,0.0,-999.0,95,-99.99,,,-99.99,,2013-06-08 05:53:00,
2013-06-08 02:02:00,66.0,65.0,29.87,SW,217,1.0,-999.0,95,-99.99,,,-99.99,,2013-06-08 06:02:00,
2013-06-08 02:13:00,66.0,65.0,29.87,SW,217,1.0,-999.0,95,-99.99,,,-99.99,,2013-06-08 06:13:00,
2013-06-08 02:22:00,66.0,65.0,29.87,SW,218,0.0,-999.0,95,-99.99,,,-99.99,,2013-06-08 06:22:00,
2013-06-08 02:32:00,66.0,65.0,29.87,SW,218,0.0,-999.0,96,-99.99,,,-99.99,,2013-06-08 06:32:00,
2013-06-08 02:42:00,66.0,65.0,29.87,SW,218,0.0,-999.0,96,-99.99,,,-99.99,,2013-06-08 06:42:00,
2013-06-08 02:53:00,66.0,65.0,29.86,SW,218,0.0,-999.0,96,-99.99,,,-99.99,,2013-06-08 06:53:00,
2013-06-08 03:02:00,66.0,65.0,29.86,SW,218,0.0,-999.0,96,-99.99,,,-99.99,,2013-06-08 07:02:00,
2013-06-08 03:12:00,66.0,65.0,29.86,SW,218,0.0,-999.0,96,-99.99,,,-99.99,,2013-06-08 07:12:00,
2013-06-08 03:22:00,66.0,65.0,29.86,SW,218,0.0,-999.0,95,-99.99,,,-99.99,,2013-06-08 07:22:00,
2013-06-08 03:32:00,65.0,64.0,29.86,SW,218,0.0,-999.0,96,-99.99,,,-99.99,,2013-06-08 07:32:00,
2013-06-08 03:42:00,65.0,64.0,29.86,SW,218,0.0,-999.0,96,-99.99,,,-99.99,,2013-06-08 07:42:00,
2013-06-08 03:52:00,65.0,64.0,29.86,SW,218,0.0,-999.0,96,-99.99,,,-99.99,,2013-06-08 07:52:00,
2013-06-08 04:02:00,65.0,64.0,29.86,SW,218,0.0,-999.0,96,-99.99,,,-99.99,,2013-06-08 08:02:00,
2013-06-08 04:12:00,65.0,64.0,29.86,SW,218,0.0,-999.0,96,-99.99,,,-99.99,,2013-06-08 08:12:00,
2013-06-08 04:22:00,-999.0,-99.9,29.88,SW,218,0.0,-999.0,-999,-99.99,,,-99.99,,2013-06-08 08:22:00,
2013-06-08 04:32:00,-999.0,-99.9,29.88,SW,218,1.0,-999.0,-999,-99.99,,,-99.99,,2013-06-08 08:32:00,
2013-06-08 04:42:00,-999.0,-99.9,29.88,SW,218,1.0,-999.0,-999,-99.99,,,-99.99,,2013-06-08 08:42:00,
2013-06-08 04:53:00,-999.0,-99.9,29.88,SW,218,0.0,-999.0,-999,-99.99,,,-99.99,,2013-06-08 08:53:00,
2013-06-08 05:02:00,-999.0,-99.9,29.89,SW,218,0.0,-999.0,-999,-99.99,,,-99.99,,2013-06-08 09:02:00,
2013-06-08 05:12:00,-999.0,-99.9,29.89,SW,218,0.0,-999.0,-999,-99.99,,,-99.99,,2013-06-08 09:12:00,
2013-06-08 05:22:00,-999.0,-99.9,29.89,SW,217,0.0,-999.0,-999,-99.99,,,-99.99,,2013-06-08 09:22:00,
2013-06-08 05:33:00,-999.0,-99.9,29.90,SW,217,1.0,-999.0,-999,-99.99,,,-99.99,,2013-06-08 09:33:00,
2013-06-08 05:43:00,-999.0,-99.9,29.90,SW,217,1.0,-999.0,-999,-99.99,,,-99.99,,2013-06-08 09:43:00,
2013-06-08 05:53:00,-999.0,-99.9,29.90,SW,217,0.0,-999.0,-999,-99.99,,,-99.99,,2013-06-08 09:53:00,
2013-06-08 06:03:00,-999.0,-99.9,29.91,SW,217,0.0,-999.0,-999,-99.99,,,-99.99,,2013-06-08 10:03:00,
2013-06-08 06:12:00,-999.0,-99.9,29.91,SW,217,0.0,-999.0,-999,-99.99,,,-99.99,,2013-06-08 10:12:00,
2013-06-08 06:23:00,-999.0,-99.9,29.91,SW,217,0.0,-999.0,-999,-99.99,,,-99.99,,2013-06-08 10:23:00,
2013-06-08 06:33:00,-999.0,-99.9,29.91,SW,217,0.0,-999.0,-999,-99.99,,,-99.99,,2013-06-08 10:33:00,
2013-06-08 06:43:00,-999.0,-99.9,29.91,SW,217,0.0,-999.0,-999,-99.99,,,-99.99,,2013-06-08 10:43:00,
2013-06-08 06:53:00,-999.0,-99.9,29.92,SW,217,0.0,-999.0,-999,-99.99,,,-99.99,,2013-06-08 10:53:00,
2013-06-08 07:03:00,-999.0,-99.9,29.93,SW,217,0.0,-999.0,-999,-99.99,,,-99.99,,2013-06-08 11:03:00,
2013-06-08 07:12:00,-999.0,-99.9,29.93,SW,217,0.0,-999.0,-999,-99.99,,,-99.99,,2013-06-08 11:12:00,
2013-06-08 07:22:00,-999.0,-99.9,29.93,SW,217,0.0,-999.0,-999,-99.99,,,-99.99,,2013-06-08 11:22:00,
2013-06-08 07:32:00,-999.0,-99.9,29.94,SW,222,0.0,-999.0,-999,-99.99,,,-99.99,,2013-06-08 11:32:00,
2013-06-08 07:42:00,-999.0,-99.9,29.94,SW,222,0.0,-999.0,-999,-99.99,,,-99.99,,2013-06-08 11:42:00,
2013-06-08 07:52:00,-999.0,-99.9,29.95,SW,223,0.0,-999.0,-999,-99.99,,,-99.99,,2013-06-08 11:52:00,
2013-06-08 08:02:00,-999.0,-99.9,29.95,SW,223,0.0,-999.0,-999,-99.99,,,-99.99,,2013-06-08 12:02:00,
2013-06-08 08:12:00,-999.0,-99.9,29.95,SW,223,0.0,-999.0,-999,-99.99,,,-99.99,,2013-06-08 12:12:00,
2013-06-08 08:22:00,-999.0,-99.9,29.96,SW,223,0.0,-999.0,-999,-99.99,,,-99.99,,2013-06-08 12:22:00,
2013-06-08 08:33:00,-999.0,-99.9,29.96,SW,223,0.0,-999.0,-999,-99.99,,,-99.99,,2013-06-08 12:33:00,
2013-06-08 08:42:00,-999.0,-99.9,29.96,SW,223,0.0,-999.0,-999,-99.99,,,-99.99,,2013-06-08 12:42:00,
2013-06-08 08:52:00,-999.0,-99.9,29.97,SW,223,1.0,-999.0,-999,-99.99,,,-99.99,,2013-06-08 12:52:00,
2013-06-08 09:02:00,-999.0,-99.9,29.97,SW,223,0.0,-999.0,-999,-99.99,,,-99.99,,2013-06-08 13:02:00,
2013-06-08 09:12:00,-999.0,-99.9,29.97,SW,223,0.0,-999.0,-999,-99.99,,,-99.99,,2013-06-08 13:12:00,
2013-06-08 09:22:00,-999.0,-99.9,29.98,SSW,211,1.0,-999.0,-999,-99.99,,,-99.99,,2013-06-08 13:22:00,
2013-06-08 09:32:00,-999.0,-99.9,29.98,South,188,1.0,-999.0,-999,-99.99,,,-99.99,,2013-06-08 13:32:00,
2013-06-08 09:42:00,-999.0,-99.9,29.98,South,188,1.0,-999.0,-999,-99.99,,,-99.99,,2013-06-08 13:42:00,
2013-06-08 09:53:00,-999.0,-99.9,29.99,South,189,1.0,-999.0,-999,-99.99,,,-99.99,,2013-06-08 13:53:00,
2013-06-08 10:02:00,-999.0,-99.9,29.99,SSW,203,1.0,-999.0,-999,-99.99,,,-99.99,,2013-06-08 14:02:00,
2013-06-08 10:12:00,-999.0,-99.9,29.99,SSW,203,1.0,-999.0,-999,-99.99,,,-99.99,,2013-06-08 14:12:00,
2013-06-08 10:22:00,-999.0,-99.9,29.99,SSW,202,0.0,-999.0,-999,-99.99,,,-99.99,,2013-06-08 14:22:00,
2013-06-08 10:32:00,-999.0,-99.9,30.00,SSW,202,0.0,-999.0,-999,-99.99,,,-99.99,,2013-06-08 14:32:00,
2013-06-08 10:42:00,-999.0,-99.9,30.00,SSW,202,0.0,-999.0,-999,-99.99,,,-99.99,,2013-06-08 14:42:00,
2013-06-08 10:52:00,-999.0,-99.9,30.00,SW,216,0.0,-999.0,-999,-99.99,,,-99.99,,2013-06-08 14:52:00,
2013-06-08 11:02:00,-999.0,-99.9,30.01,SW,234,1.0,-999.0,-999,-99.99,,,-99.99,,2013-06-08 15:02:00,
2013-06-08 11:12:00,-999.0,-99.9,30.01,SW,234,1.0,-999.0,-999,-99.99,,,-99.99,,2013-06-08 15:12:00,
2013-06-08 11:22:00,-999.0,-99.9,30.01,SSW,206,1.0,-999.0,-999,-99.99,,,-99.99,,2013-06-08 15:22:00,
2013-06-08 11:33:00,-999.0,-99.9,30.01,SW,215,2.0,-999.0,-999,-99.99,,,-99.99,,2013-06-08 15:33:00,
2013-06-08 11:43:00,-999.0,-99.9,30.01,SW,215,2.0,-999.0,-999,-99.99,,,-99.99,,2013-06-08 15:43:00,
2013-06-08 11:54:00,-999.0,-99.9,30.02,SW,224,1.0,-999.0,-999,-99.99,,,-99.99,,2013-06-08 15:54:00,
2013-06-08 12:03:00,-999.0,-99.9,30.02,WSW,240,1.0,-999.0,-999,-99.99,,,-99.99,,2013-06-08 16:03:00,
2013-06-08 12:12:00,-999.0,-99.9,30.02,WSW,240,1.0,-999.0,-999,-99.99,,,-99.99,,2013-06-08 16:12:00,
2013-06-08 12:23:00,-999.0,-99.9,30.02,SSW,202,1.0,-999.0,-999,-99.99,,,-99.99,,2013-06-08 16:23:00,
2013-06-08 12:33:00,-999.0,-99.9,30.02,SSW,193,1.0,-999.0,-999,-99.99,,,-99.99,,2013-06-08 16:33:00,
2013-06-08 12:42:00,-999.0,-99.9,30.02,SSW,193,1.0,-999.0,-999,-99.99,,,-99.99,,2013-06-08 16:42:00,
2013-06-08 12:53:00,-999.0,-99.9,30.02,NW,304,1.0,-999.0,-999,-99.99,,,-99.99,,2013-06-08 16:53:00,
2013-06-08 13:02:00,-999.0,-99.9,30.02,SSW,209,2.0,-999.0,-999,-99.99,,,-99.99,,2013-06-08 17:02:00,
2013-06-08 13:12:00,-999.0,-99.9,30.02,SSW,209,2.0,-999.0,-999,-99.99,,,-99.99,,2013-06-08 17:12:00,
2013-06-08 13:23:00,-999.0,-99.9,30.02,SW,220,1.0,-999.0,-999,-99.99,,,-99.99,,2013-06-08 17:23:00,
2013-06-08 13:32:00,-999.0,-99.9,30.02,SSW,198,1.0,-999.0,-999,-99.99,,,-99.99,,2013-06-08 17:32:00,
2013-06-08 13:42:00,-999.0,-99.9,30.02,SSW,198,1.0,-999.0,-999,-99.99,,,-99.99,,2013-06-08 17:42:00,
2013-06-08 13:52:00,-999.0,-99.9,30.01,SSE,165,3.0,-999.0,-999,-99.99,,,-99.99,,2013-06-08 17:52:00,
2013-06-08 14:02:00,-999.0,-99.9,30.01,SSW,211,1.0,-999.0,-999,-99.99,,,-99.99,,2013-06-08 18:02:00,
2013-06-08 14:12:00,-999.0,-99.9,30.01,SSW,211,1.0,-999.0,-999,-99.99,,,-99.99,,2013-06-08 18:12:00,
2013-06-08 14:22:00,-999.0,-99.9,30.01,West,265,1.0,-999.0,-999,-99.99,,,-99.99,,2013-06-08 18:22:00,
2013-06-08 14:32:00,-999.0,-99.9,30.01,South,187,1.0,-999.0,-999,-99.99,,,-99.99,,2013-06-08 18:32:00,
2013-06-08 14:42:00,-999.0,-99.9,30.01,South,187,1.0,-999.0,-999,-99.99,,,-99.99,,2013-06-08 18:42:00,
2013-06-08 14:52:00,-999.0,-99.9,30.00,West,268,1.0,-999.0,-999,-99.99,,,-99.99,,2013-06-08 18:52:00,
2013-06-08 15:03:00,-999.0,-99.9,30.00,SSW,209,1.0,-999.0,-999,-99.99,,,-99.99,,2013-06-08 19:03:00,
2013-06-08 15:13:00,-999.0,-99.9,30.00,SSW,209,1.0,-999.0,-999,-99.99,,,-99.99,,2013-06-08 19:13:00,
2013-06-08 15:22:00,-999.0,-99.9,29.99,SSW,204,1.0,-999.0,-999,-99.99,,,-99.99,,2013-06-08 19:22:00,
2013-06-08 15:32:00,-999.0,-99.9,29.99,SSE,154,1.0,-999.0,-999,-99.99,,,-99.99,,2013-06-08 19:32:00,
2013-06-08 15:42:00,-999.0,-99.9,29.99,SSE,154,1.0,-999.0,-999,-99.99,,,-99.99,,2013-06-08 19:42:00,
2013-06-08 15:53:00,-999.0,-99.9,29.99,West,276,1.0,-999.0,-999,-99.99,,,-99.99,,2013-06-08 19:53:00,
2013-06-08 16:02:00,-999.0,-99.9,29.99,SSW,198,2.0,-999.0,-999,-99.99,,,-99.99,,2013-06-08 20:02:00,
2013-06-08 16:12:00,-999.0,-99.9,29.99,SSW,198,2.0,-999.0,-999,-99.99,,,-99.99,,2013-06-08 20:12:00,
2013-06-08 16:22:00,-999.0,-99.9,29.99,SW,223,0.0,-999.0,-999,-99.99,,,-99.99,,2013-06-08 20:22:00,
2013-06-08 16:32:00,82.0,67.0,29.99,SSW,196,2.0,-999.0,60,-99.99,,,-99.99,,2013-06-08 20:32:00,
2013-06-08 16:42:00,82.0,67.0,29.99,SSW,196,2.0,-999.0,60,-99.99,,,-99.99,,2013-06-08 20:42:00,
2013-06-08 16:53:00,81.0,67.0,29.99,SW,229,1.0,-999.0,62,-99.99,,,-99.99,,2013-06-08 20:53:00,
2013-06-08 17:02:00,81.0,67.0,29.99,SSW,206,0.0,-999.0,63,-99.99,,,-99.99,,2013-06-08 21:02:00,
2013-06-08 17:12:00,81.0,67.0,29.99,SSW,206,0.0,-999.0,63,-99.99,,,-99.99,,2013-06-08 21:12:00,
2013-06-08 17:22:00,81.0,66.0,29.99,South,182,1.0,-999.0,61,-99.99,,,-99.99,,2013-06-08 21:22:00,
2013-06-08 17:33:00,81.0,68.0,29.98,SSW,207,0.0,-999.0,64,-99.99,,,-99.99,,2013-06-08 21:33:00,
2013-06-08 17:43:00,81.0,68.0,29.98,SSW,207,0.0,-999.0,64,-99.99,,,-99.99,,2013-06-08 21:43:00,
2013-06-08 17:53:00,81.0,67.0,29.99,SSW,209,0.0,-999.0,63,-99.99,,,-99.99,,2013-06-08 21:53:00,
2013-06-08 18:02:00,80.0,66.0,29.98,South,186,1.0,-999.0,63,-99.99,,,-99.99,,2013-06-08 22:02:00,
2013-06-08 18:12:00,80.0,66.0,29.99,SSW,194,1.0,-999.0,62,-99.99,,,-99.99,,2013-06-08 22:12:00,
2013-06-08 18:23:00,80.0,66.0,29.99,SSW,194,1.0,-999.0,62,-99.99,,,-99.99,,2013-06-08 22:23:00,
2013-06-08 18:33:00,80.0,67.0,29.98,West,274,0.0,-999.0,64,-99.99,,,-99.99,,2013-06-08 22:33:00,
2013-06-08 18:42:00,80.0,67.0,29.99,SW,228,0.0,-999.0,65,-99.99,,,-99.99,,2013-06-08 22:42:00,
2013-06-08 18:53:00,80.0,67.0,29.99,SW,228,0.0,-999.0,65,-99.99,,,-99.99,,2013-06-08 22:53:00,
2013-06-08 19:02:00,79.0,66.0,29.99,SSW,194,1.0,-999.0,65,-99.99,,,-99.99,,2013-06-08 23:02:00,
2013-06-08 19:12:00,79.0,67.0,29.99,SSW,200,0.0,-999.0,67,-99.99,,,-99.99,,2013-06-08 23:12:00,
2013-06-08 19:22:00,79.0,67.0,29.99,SSW,200,0.0,-999.0,67,-99.99,,,-99.99,,2013-06-08 23:22:00,
2013-06-08 19:32:00,79.0,67.0,29.99,South,190,1.0,-999.0,66,-99.99,,,-99.99,,2013-06-08 23:32:00,
2013-06-08 19:42:00,79.0,67.0,29.99,South,190,1.0,-999.0,66,-99.99,,,-99.99,,2013-06-08 23:42:00,
2013-06-08 19:52:00,79.0,68.0,30.00,South,191,0.0,-999.0,69,-99.99,,,-99.99,,2013-06-08 23:52:00,
2013-06-08 20:02:00,79.0,69.0,30.00,SSW,192,0.0,-999.0,71,-99.99,,,-99.99,,2013-06-09 00:02:00,
2013-06-08 20:12:00,79.0,69.0,30.00,SSW,192,0.0,-999.0,71,-99.99,,,-99.99,,2013-06-09 00:12:00,
2013-06-08 20:22:00,78.0,68.0,30.01,SSW,192,0.0,-999.0,72,-99.99,,,-99.99,,2013-06-09 00:22:00,
2013-06-08 20:32:00,77.0,67.0,30.01,SSW,192,0.0,-999.0,72,-99.99,,,-99.99,,2013-06-09 00:32:00,
2013-06-08 20:42:00,77.0,67.0,30.01,SSW,192,0.0,-999.0,72,-99.99,,,-99.99,,2013-06-09 00:42:00,
2013-06-08 20:52:00,76.0,67.0,30.01,SSW,192,0.0,-999.0,74,-99.99,,,-99.99,,2013-06-09 00:52:00,
2013-06-08 21:02:00,75.0,67.0,30.02,SSW,192,0.0,-999.0,77,-99.99,,,-99.99,,2013-06-09 01:02:00,
2013-06-08 21:12:00,74.0,67.0,30.02,SSW,192,0.0,-999.0,78,-99.99,,,-99.99,,2013-06-09 01:12:00,
2013-06-08 21:22:00,74.0,67.0,30.02,SSW,192,0.0,-999.0,78,-99.99,,,-99.99,,2013-06-09 01:22:00,
2013-06-08 21:32:00,73.0,66.0,30.03,SSW,192,0.0,-999.0,80,-99.99,,,-99.99,,2013-06-09 01:32:00,
2013-06-08 21:42:00,73.0,66.0,30.03,SSW,192,0.0,-999.0,80,-99.99,,,-99.99,,2013-06-09 01:42:00,
2013-06-08 21:52:00,72.0,66.0,30.03,SSW,192,0.0,-999.0,82,-99.99,,,-99.99,,2013-06-09 01:52:00,
2013-06-08 22:02:00,71.0,66.0,30.04,SSW,192,0.0,-999.0,83,-99.99,,,-99.99,,2013-06-09 02:02:00,
2013-06-08 22:12:00,71.0,66.0,30.04,SSW,192,0.0,-999.0,83,-99.99,,,-99.99,,2013-06-09 02:12:00,
2013-06-08 22:22:00,70.0,65.0,30.04,SSW,192,0.0,-999.0,84,-99.99,,,-99.99,,2013-06-09 02:22:00,
2013-06-08 22:32:00,70.0,65.0,30.05,SSW,192,0.0,-999.0,85,-99.99,,,-99.99,,2013-06-09 02:32:00,
2013-06-08 22:42:00,70.0,65.0,30.05,SSW,192,0.0,-999.0,85,-99.99,,,-99.99,,2013-06-09 02:42:00,
2013-06-08 22:52:00,69.0,64.0,30.05,SSW,192,0.0,-999.0,85,-99.99,,,-99.99,,2013-06-09 02:52:00,
2013-06-08 23:02:00,69.0,65.0,30.05,SSW,192,0.0,-999.0,86,-99.99,,,-99.99,,2013-06-09 03:02:00,
2013-06-08 23:12:00,69.0,65.0,30.05,SSW,192,0.0,-999.0,86,-99.99,,,-99.99,,2013-06-09 03:12:00,
2013-06-08 23:22:00,68.0,64.0,30.06,SSW,192,0.0,-999.0,87,-99.99,,,-99.99,,2013-06-09 03:22:00,
2013-06-08 23:33:00,68.0,64.0,30.06,SSW,192,0.0,-999.0,88,-99.99,,,-99.99,,2013-06-09 03:33:00,
2013-06-08 23:43:00,68.0,64.0,30.06,SSW,192,0.0,-999.0,88,-99.99,,,-99.99,,2013-06-09 03:43:00,
2013-06-08 23:53:00,68.0,65.0,30.06,SSW,192,0.0,-999.0,89,-99.99,,,-99.99,,2013-06-09 03:53:00,